N6AMM Weather Reports


Display with metric or nautical units.
time (UTC)temp
F
wind
direction
speed
MPH
gust
MPH
rain 1hr
in
rain 24hr
in
rain mn
in
humidity
%
barometer
mb
20260507014535 63 248 5.0 10.0 0.00 0.00 0.00 50 1020.4
20260507013035 69 311 5.0 9.0 0.00 0.00 0.00 38 1020.3
20260507011533 71 173 1.0 4.0 0.00 0.00 0.00 27 1020.0
20260507010008 72 177 1.0 6.0 0.00 0.00 0.00 26 1020.0
20260507004507 73 44 0.0 3.0 0.00 0.00 0.00 26 1019.9
20260507003008 73 103 1.0 4.0 0.00 0.00 0.00 25 1019.9
20260507001511 74 116 2.0 4.0 0.00 0.00 0.00 26 1019.8
20260507000010 73 149 2.0 6.0 0.00 0.00 0.00 26 1019.7
20260506234509 73 352 4.0 10.0 0.00 0.00 0.00 27 1019.6
20260506233008 73 89 2.0 7.0 0.00 0.00 0.00 29 1019.7
20260506231511 73 165 2.0 8.0 0.00 0.00 0.00 32 1019.7
20260506230010 74 80 3.0 8.0 0.00 0.00 0.00 27 1019.7
20260506224510 74 242 2.0 8.0 0.00 0.00 0.00 29 1019.7
20260506223016 74 14 2.0 4.0 0.00 0.00 0.00 28 1019.9
20260506221510 73 96 3.0 8.0 0.00 0.00 0.00 34 1020.0
20260506220011 73 57 2.0 9.0 0.00 0.00 0.00 32 1020.3
20260506213014 72 191 3.0 12.0 0.00 0.00 0.00 32 1020.4
20260506211519 72 297 3.0 8.0 0.00 0.00 0.00 34 1020.5
20260506210017 70 13 2.0 16.0 0.00 0.00 0.00 37 1020.4
20260506204516 69 281 3.0 11.0 0.00 0.00 0.00 35 1020.6
20260506203014 68 329 2.0 12.0 0.00 0.00 0.00 36 1020.5
20260506201518 69 286 3.0 11.0 0.00 0.00 0.00 38 1020.6
20260506200012 68 76 1.0 10.0 0.00 0.00 0.00 41 1020.7
20260506194516 67 229 4.0 11.0 0.00 0.00 0.00 37 1020.9
20260506191519 65 13 4.0 10.0 0.00 0.00 0.00 40 1021.0
20260506190015 64 192 3.0 10.0 0.00 0.00 0.00 41 1021.0
20260506184515 64 275 2.0 7.0 0.00 0.00 0.00 41 1021.0
20260506183016 62 161 2.0 9.0 0.00 0.00 0.00 42 1021.0
20260506180025 61 155 3.0 10.0 0.00 0.00 0.00 45 1021.2
20260506174520 60 315 3.0 9.0 0.00 0.00 0.00 45 1020.9
20260506173019 59 26 4.0 9.0 0.00 0.00 0.00 47 1020.9
20260506171519 58 316 3.0 9.0 0.00 0.00 0.00 48 1020.9
20260506164520 57 339 2.0 6.0 0.00 0.00 0.00 52 1020.6
20260506163025 56 310 1.0 4.0 0.00 0.00 0.00 54 1020.5
20260506161518 54 331 2.0 5.0 0.00 0.01 0.00 60 1020.3
20260506154524 47 11 1.0 3.0 0.00 0.02 0.00 95 1020.1
20260506153022 46 109 0.0 0.0 0.00 0.03 0.00 95 1020.1
20260506151523 44 261 0.0 0.0 0.00 0.03 0.00 95 1020.1
20260506144525 37 261 0.0 0.0 0.00 0.04 0.00 94 1020.1
20260506143026 35 261 0.0 0.0 0.00 0.05 0.00 94 1020.0
20260506141524 33 261 0.0 0.0 0.00 0.05 0.00 94 1020.0
20260506140024 32 261 0.0 0.0 0.00 0.06 0.00 93 1019.9
20260506133020 32 261 0.0 0.0 0.00 0.09 0.00 92 1019.5
20260506131530 31 261 0.0 0.0 0.00 0.11 0.00 92 1019.5
20260506124521 31 259 0.0 0.0 0.00 0.14 0.00 92 1019.3
20260506123025 31 261 0.0 0.0 0.00 0.15 0.00 92 1019.1
20260506114520 32 261 0.0 0.0 0.00 0.16 0.00 91 1019.1
20260506113020 32 307 0.0 0.0 0.00 0.16 0.00 91 1018.9
20260506111524 32 307 0.0 0.0 0.00 0.16 0.00 91 1018.9
20260506104513 33 348 0.0 0.0 0.00 0.16 0.00 91 1018.7
20260506103021 33 348 0.0 0.0 0.00 0.16 0.00 90 1018.6
20260506101538 33 348 0.0 0.0 0.00 0.16 0.00 90 1018.4
20260506100026 33 351 0.0 0.0 0.00 0.16 0.00 90 1018.5
20260506094527 34 36 0.0 0.0 0.00 0.16 0.00 89 1018.4
20260506093022 34 36 0.0 0.0 0.00 0.16 0.00 89 1018.4
20260506091526 35 36 0.0 0.0 0.00 0.16 0.00 88 1018.3
20260506090026 35 36 0.0 0.0 0.00 0.17 0.00 88 1018.4
20260506084526 36 28 0.0 0.0 0.00 0.17 0.00 88 1018.5
20260506083030 36 28 0.0 0.0 0.00 0.17 0.00 88 1018.6
20260506073037 37 178 0.0 3.0 0.00 0.20 0.00 91 1018.8
20260506071519 37 9 0.0 4.0 0.00 0.20 0.00 91 1018.8
20260506061528 38 303 2.0 7.0 0.00 0.21 0.20 89 1018.5
20260506041526 41 244 1.0 6.0 0.00 0.21 0.20 87 1017.3
20260506040028 41 288 2.0 8.0 0.00 0.21 0.20 87 1017.2
20260506034551 41 255 2.0 7.0 0.00 0.21 0.20 87 1017.1
20260506033024 41 220 1.0 4.0 0.00 0.21 0.20 87 1017.0
20260506031523 41 298 1.0 6.0 0.00 0.21 0.20 86 1016.6
20260506030026 41 248 1.0 6.0 0.00 0.21 0.20 86 1016.5
20260506024529 41 143 1.0 7.0 0.00 0.21 0.20 85 1016.1
20260506023020 42 261 1.0 4.0 0.00 0.21 0.20 85 1016.0
20260506021523 42 173 2.0 7.0 0.00 0.21 0.20 84 1015.9
20260506020007 43 207 4.0 11.0 0.00 0.21 0.20 83 1015.7